Weather History for CXWB - October, 2012

Change the Weather History Date:

Monday, October 29, 2012

  Actual Average Record
Temperature  
Mean Temperature 6 °F -  
Max Temperature 12 °F - - ()
Min Temperature -2 °F - - ()
Degree Days  
Heating Degree Days 60    
Moisture  
Dew Point -3 °F    
Average Humidity 74    
Maximum Humidity 81    
Minimum Humidity 49    
Precipitation  
Precipitation 0.00 in - - ()
Sea Level Pressure  
Sea Level Pressure 30.49 in    
Wind  
Wind Speed 6 mph ()    
Max Wind Speed 10 mph    
Max Gust Speed -    
T = Trace of Precipitation, MM = Missing Value Source: Averaged Metar Reports

Daily Weather History Graph

Daily Weather History Graph

Search for Another Location

Airport or City:

Trip Planner

Search our weather history database for the weather conditions in past years. The results will help you decide how hot, cold, wet, or windy it might be!

Date:

Astronomy

Oct. 29, 2012 Rise Set
Actual Time 7:43 AM MDT 3:38 PM MDT
Civil Twilight 6:46 AM MDT 4:34 PM MDT
Nautical Twilight 5:45 AM MDT 5:35 PM MDT
Astronomical Twilight 4:46 AM MDT 6:34 PM MDT
Moon 3:08 PM MDT (10/29) 7:49 AM MDT (10/29)
Length of Visible Light 9h 48m
Length of Day
7h 54m
Full, 100% of the Moon is Illuminated
Oct 29
Full
Oct 29
Full
Nov 6
Last Quarter
Nov 13
New
Nov 20
First Quarter

Hourly Weather History & Observations

Time (MDT) Temp. Windchill Dew Point Humidity Pressure Visibility Wind Dir Wind Speed Gust Speed Precip Events Conditions
12:00 AM 0 °F - -4 °F 74% 30.37 in - North 5.8 mph - -  
12:00 AM 0.5 °F -11.0 °F -4.2 °F 81% 30.37 in - North 5.8 mph - N/A   Unknown
1:00 AM 2.5 °F -10.0 °F -2.7 °F 79% 30.39 in - NNW 6.9 mph - N/A   Unknown
2:00 AM 1.2 °F -12.7 °F -3.5 °F 81% 30.41 in - North 8.1 mph - N/A   Unknown
3:00 AM 0.7 °F -7.1 °F -3.8 °F 81% 30.43 in - North 3.5 mph - N/A   Unknown
4:00 AM 1.9 °F -11.8 °F -3.5 °F 78% 30.44 in - NNW 8.1 mph - N/A   Unknown
5:00 AM 0.9 °F -13.1 °F -4.0 °F 80% 30.45 in - NNW 8.1 mph - N/A   Unknown
7:00 AM -0.9 °F -8.9 °F -5.6 °F 81% 30.48 in - NNE 3.5 mph - N/A   Unknown
8:00 AM 1.8 °F -12.0 °F -3.5 °F 79% 30.48 in - NNE 8.1 mph - N/A   Unknown
9:00 AM 8.1 °F - -1.1 °F 66% 30.50 in - North 2.3 mph - N/A   Unknown
10:00 AM 6.4 °F -0.5 °F -3.1 °F 65% 30.51 in - NE 3.5 mph - N/A   Unknown
11:00 AM 7.3 °F -2.8 °F -1.3 °F 68% 30.51 in - NE 5.8 mph - N/A   Unknown
12:00 PM 10 °F - -0 °F 49% 30.52 in - North 3.5 mph - -  
12:00 PM 9.9 °F 3.4 °F -0.2 °F 64% 30.52 in - North 3.5 mph - N/A   Unknown
1:00 PM 9.9 °F -1.1 °F 1.8 °F 70% 30.52 in - ENE 6.9 mph - N/A   Unknown
2:00 PM 8.6 °F 0.1 °F -0.6 °F 66% 30.53 in - NE 4.6 mph - N/A   Unknown
3:00 PM 5.7 °F -6.1 °F -1.5 °F 72% 30.54 in - NE 6.9 mph - N/A   Unknown
4:00 PM 2.1 °F -11.6 °F -3.3 °F 78% 30.54 in - NE 8.1 mph - N/A   Unknown
5:00 PM 1.2 °F -12.7 °F -4.0 °F 79% 30.55 in - NE 8.1 mph - N/A   Unknown
6:00 PM 0 °F - -5 °F 70% 30.55 in - ENE 10.4 mph - -  
6:00 PM 0.1 °F -16.0 °F -4.9 °F 79% 30.55 in - ENE 10.4 mph - N/A   Unknown
7:00 PM 0.3 °F -15.8 °F -5.1 °F 78% 30.55 in - ENE 10.4 mph - N/A   Unknown
8:00 PM -0.4 °F -16.7 °F -5.3 °F 80% 30.55 in - NE 10.4 mph - N/A   Unknown
11:00 PM -2.4 °F -17.1 °F -7.2 °F 80% 30.55 in - NE 8.1 mph - N/A   Unknown